Weather History for Savannah, GA

Change the Weather History Date:

Sunday, October 7, 2012

  Actual Average Record
Temperature  
Mean Temperature 79 °F 71 °F  
Max Temperature 88 °F 81 °F 94 °F (1951)
Min Temperature 69 °F 61 °F 44 °F (1964)
Degree Days  
Heating Degree Days 0 1  
Month to date heating degree days 0 5  
Since 1 July heating degree days 0 7  
Cooling Degree Days 14 7  
Month to date cooling degree days 90 52  
Year to date cooling degree days 2587 2318  
Growing Degree Days 28 (Base 50)    
Moisture  
Dew Point 69 °F    
Average Humidity 74    
Maximum Humidity 100    
Minimum Humidity 48    
Precipitation  
Precipitation 0.00 in 0.14 in 2.81 in (1946)
Month to date precipitation 0.67 1.07  
Year to date precipitation 37.34 40.02  
Snow  
Snow 0.00 in 0.00 in 0.00 in (2002)
Month to date snowfall 0.0  
Since 1 July snowfall 0.0 0.0  
Snow Depth 0.00 in    
Sea Level Pressure  
Sea Level Pressure 29.98 in    
Wind  
Wind Speed 3 mph (West)    
Max Wind Speed 10 mph    
Max Gust Speed 13 mph    
Visibility 7 miles    
Events Fog    
T = Trace of Precipitation, MM = Missing Value Source: NWS Daily Summary

Daily Weather History Graph

Daily Weather History Graph

Search for Another Location

Airport:

Trip Planner

Search our weather history database for the weather conditions in past years. The results will help you decide how hot, cold, wet, or windy it might be!

Date:

Astronomy

Oct. 07, 2012 Rise Set
Actual Time 7:23 AM EDT 7:01 PM EDT
Civil Twilight 6:58 AM EDT 7:25 PM EDT
Nautical Twilight 6:30 AM EDT 7:54 PM EDT
Astronomical Twilight 6:01 AM EDT 8:22 PM EDT
Moon No Moon Rise 1:45 PM EDT (10/7)
Length of Visible Light 12h 27m
Length of Day
11h 38m
Waning Gibbous, 56% of the Moon is Illuminated
Oct 7
Waning Gibbous
Oct 8
Last Quarter
Oct 15
New
Oct 21
First Quarter
Oct 29
Full

Hourly Weather History & Observations

Time (EDT) Temp. Heat Index Dew Point Humidity Pressure Visibility Wind Dir Wind Speed Gust Speed Precip Events Conditions
12:53 AM 72.0 °F - 70.0 °F 93% 29.97 in 8.0 mi Calm Calm - N/A   Scattered Clouds
1:53 AM 72.0 °F - 70.0 °F 93% 29.96 in 7.0 mi Calm Calm - N/A   Partly Cloudy
2:53 AM 71.1 °F - 70.0 °F 96% 29.96 in 7.0 mi Calm Calm - N/A Fog Patches of Fog
3:53 AM 71.1 °F - 69.1 °F 93% 29.95 in 3.0 mi Calm Calm - N/A   Partly Cloudy
4:53 AM 71.1 °F - 70.0 °F 96% 29.94 in 6.0 mi SW 5.8 mph - N/A   Partly Cloudy
5:53 AM 70.0 °F - 69.1 °F 97% 29.95 in 4.0 mi Calm Calm - N/A   Mostly Cloudy
6:00 AM 69.8 °F - 68.0 °F 94% 29.95 in 4.0 mi West 3.5 mph - N/A   Scattered Clouds
6:39 AM 69.8 °F - 68.0 °F 94% 29.97 in 2.5 mi Calm Calm - N/A   Mostly Cloudy
6:46 AM 69.8 °F - 68.0 °F 94% 29.97 in 3.0 mi Calm Calm - N/A   Scattered Clouds
6:53 AM 70.0 °F - 68.0 °F 93% 29.97 in 3.0 mi Calm Calm - N/A   Scattered Clouds
7:53 AM 69.1 °F - 68.0 °F 96% 29.99 in 5.0 mi West 3.5 mph - N/A   Scattered Clouds
8:08 AM 69.8 °F - 68.0 °F 94% 29.99 in 2.5 mi Calm Calm - N/A   Scattered Clouds
8:48 AM 71.6 °F - 69.8 °F 94% 29.99 in 6.0 mi West 4.6 mph - N/A   Scattered Clouds
8:53 AM 72.0 °F - 70.0 °F 93% 30.00 in 6.0 mi West 4.6 mph - N/A   Scattered Clouds
9:02 AM 71.6 °F - 69.8 °F 94% 30.00 in 5.0 mi WNW 4.6 mph - N/A   Mostly Cloudy
9:53 AM 73.0 °F - 71.1 °F 93% 30.00 in 7.0 mi NW 5.8 mph - N/A   Overcast
10:53 AM 75.9 °F - 71.1 °F 85% 30.01 in 7.0 mi West 3.5 mph - N/A   Mostly Cloudy
11:25 AM 77.0 °F - 71.6 °F 83% 30.01 in 10.0 mi North 6.9 mph - N/A   Mostly Cloudy
11:43 AM 78.8 °F - 71.6 °F 78% 30.01 in 10.0 mi West 4.6 mph - N/A   Scattered Clouds
11:53 AM 79.0 °F - 71.1 °F 77% 30.00 in 10.0 mi WNW 3.5 mph - N/A   Partly Cloudy
12:53 PM 82.9 °F 87.5 °F 71.1 °F 67% 29.99 in 10.0 mi Variable 3.5 mph - N/A   Partly Cloudy
1:53 PM 87.1 °F 90.6 °F 68.0 °F 53% 29.96 in 10.0 mi Variable 5.8 mph - N/A   Scattered Clouds
2:53 PM 86.0 °F 89.4 °F 68.0 °F 55% 29.94 in 10.0 mi West 4.6 mph - N/A   Mostly Cloudy
3:53 PM 87.1 °F 90.6 °F 68.0 °F 53% 29.93 in 10.0 mi SW 5.8 mph - N/A   Mostly Cloudy
4:53 PM 87.1 °F 89.2 °F 66.0 °F 49% 29.93 in 10.0 mi Variable 4.6 mph - N/A   Mostly Cloudy
5:53 PM 86.0 °F 87.6 °F 64.9 °F 49% 29.94 in 10.0 mi NW 5.8 mph - N/A   Mostly Cloudy
6:53 PM 80.1 °F 84.2 °F 73.0 °F 79% 29.96 in 10.0 mi South 8.1 mph - N/A   Mostly Cloudy
7:53 PM 77.0 °F - 68.0 °F 74% 29.99 in 10.0 mi ESE 6.9 mph - N/A   Mostly Cloudy
8:53 PM 75.9 °F - 66.0 °F 71% 30.00 in 10.0 mi South 3.5 mph - N/A   Scattered Clouds
9:53 PM 73.0 °F - 68.0 °F 84% 30.00 in 10.0 mi Calm Calm - N/A   Scattered Clouds
10:53 PM 72.0 °F - 68.0 °F 87% 30.02 in 10.0 mi Calm Calm - N/A   Mostly Cloudy
11:53 PM 72.0 °F - 68.0 °F 87% 30.01 in 10.0 mi Calm Calm - N/A   Mostly Cloudy